Time,TemperatureF,DewpointF,PressureIn,WindDirection,WindDirectionDegrees,WindSpeedMPH,WindSpeedGustMPH,Humidity,HourlyPrecipIn,Conditions,Clouds,dailyrainin,SoftwareType,DateUTC
2013-02-06 00:01:00,27.0,26.0,-100.00,West,270,0.0,2.0,96,0.00,,,-99.99,,2013-02-06 06:01:00,
2013-02-06 00:11:00,27.0,26.0,-100.00,NNW,335,1.0,1.0,96,0.00,,,-99.99,,2013-02-06 06:11:00,
2013-02-06 00:21:00,26.0,25.0,-100.00,WNW,300,0.0,1.0,96,0.00,,,-99.99,,2013-02-06 06:21:00,
2013-02-06 00:32:00,26.0,25.0,-100.00,SSW,200,4.0,4.0,97,0.00,,,-99.99,,2013-02-06 06:32:00,
2013-02-06 00:42:00,26.0,25.0,-100.00,South,190,2.0,3.0,97,0.00,,,-99.99,,2013-02-06 06:42:00,
2013-02-06 00:51:00,26.0,25.0,-100.00,SE,135,1.0,3.0,97,0.00,,,-99.99,,2013-02-06 06:51:00,
2013-02-06 01:01:00,26.0,25.0,-100.00,SE,135,1.0,3.0,97,0.00,,,-99.99,,2013-02-06 07:01:00,
2013-02-06 01:11:00,25.0,25.0,-100.00,SE,140,2.0,2.0,97,0.00,,,-99.99,,2013-02-06 07:11:00,
2013-02-06 01:21:00,25.0,25.0,-100.00,NE,40,0.0,3.0,98,0.00,,,-99.99,,2013-02-06 07:21:00,
2013-02-06 01:32:00,25.0,24.0,-100.00,East,100,2.0,3.0,98,0.00,,,-99.99,,2013-02-06 07:32:00,
2013-02-06 01:41:00,25.0,25.0,-100.00,ESE,120,2.0,3.0,98,0.00,,,-99.99,,2013-02-06 07:41:00,
2013-02-06 01:51:00,25.0,25.0,-100.00,South,185,1.0,3.0,98,0.00,,,-99.99,,2013-02-06 07:51:00,
2013-02-06 02:01:00,25.0,25.0,-100.00,South,185,1.0,3.0,98,0.00,,,-99.99,,2013-02-06 08:01:00,
2013-02-06 02:11:00,25.0,25.0,-100.00,South,170,3.0,4.0,98,0.00,,,-99.99,,2013-02-06 08:11:00,
2013-02-06 02:21:00,25.0,25.0,-100.00,SSE,160,2.0,4.0,98,0.00,,,-99.99,,2013-02-06 08:21:00,
2013-02-06 02:31:00,25.0,24.0,-100.00,South,170,2.0,2.0,98,0.00,,,-99.99,,2013-02-06 08:31:00,
2013-02-06 02:41:00,26.0,25.0,-100.00,ESE,120,2.0,3.0,98,0.00,,,-99.99,,2013-02-06 08:41:00,
2013-02-06 02:53:00,26.0,26.0,-100.00,SE,125,2.0,2.0,99,0.00,,,-99.99,,2013-02-06 08:53:00,
2013-02-06 03:01:00,26.0,26.0,-100.00,SE,125,2.0,2.0,99,0.00,,,-99.99,,2013-02-06 09:01:00,
2013-02-06 03:11:00,26.0,26.0,-100.00,SE,140,2.0,4.0,99,0.00,,,-99.99,,2013-02-06 09:11:00,
2013-02-06 03:21:00,26.0,26.0,-100.00,SSE,155,2.0,4.0,99,0.00,,,-99.99,,2013-02-06 09:21:00,
2013-02-06 03:31:00,26.0,26.0,-100.00,SSE,150,1.0,3.0,99,0.00,,,-99.99,,2013-02-06 09:31:00,
2013-02-06 03:41:00,26.0,26.0,-100.00,SSW,195,1.0,3.0,99,0.00,,,-99.99,,2013-02-06 09:41:00,
2013-02-06 03:51:00,26.0,26.0,-100.00,NNE,25,0.0,1.0,99,0.00,,,-99.99,,2013-02-06 09:51:00,
2013-02-06 04:01:00,26.0,26.0,-100.00,NNE,25,0.0,1.0,99,0.00,,,-99.99,,2013-02-06 10:01:00,
2013-02-06 04:11:00,26.0,26.0,-100.00,SSW,195,1.0,2.0,99,0.00,,,-99.99,,2013-02-06 10:11:00,
2013-02-06 04:21:00,27.0,27.0,-100.00,SE,130,1.0,3.0,99,0.00,,,-99.99,,2013-02-06 10:21:00,
2013-02-06 04:31:00,27.0,27.0,-100.00,SE,145,1.0,2.0,99,0.00,,,-99.99,,2013-02-06 10:31:00,
2013-02-06 04:41:00,27.0,27.0,-100.00,SE,125,2.0,4.0,99,0.00,,,-99.99,,2013-02-06 10:41:00,
2013-02-06 04:51:00,27.0,27.0,-100.00,SE,125,3.0,4.0,99,0.00,,,-99.99,,2013-02-06 10:51:00,
2013-02-06 05:01:00,27.0,27.0,-100.00,SE,125,3.0,4.0,99,0.00,,,-99.99,,2013-02-06 11:01:00,
2013-02-06 05:11:00,27.0,27.0,-100.00,East,95,6.0,7.0,98,0.00,,,-99.99,,2013-02-06 11:11:00,
2013-02-06 05:22:00,27.0,27.0,-100.00,ESE,105,6.0,8.0,98,0.00,,,-99.99,,2013-02-06 11:22:00,
2013-02-06 05:32:00,27.0,27.0,-100.00,ESE,120,4.0,7.0,98,0.00,,,-99.99,,2013-02-06 11:32:00,
2013-02-06 05:42:00,28.0,27.0,-100.00,ESE,120,4.0,6.0,98,0.00,,,-99.99,,2013-02-06 11:42:00,
2013-02-06 05:52:00,28.0,28.0,-100.00,ESE,120,4.0,7.0,98,0.00,,,-99.99,,2013-02-06 11:52:00,
2013-02-06 06:02:00,28.0,28.0,-100.00,ESE,120,4.0,7.0,98,0.00,,,-99.99,,2013-02-06 12:02:00,
2013-02-06 06:12:00,29.0,28.0,-100.00,SE,125,6.0,9.0,98,0.00,,,-99.99,,2013-02-06 12:12:00,
2013-02-06 06:22:00,29.0,28.0,-100.00,SE,135,4.0,9.0,98,0.00,,,-99.99,,2013-02-06 12:22:00,
2013-02-06 06:32:00,29.0,28.0,-100.00,SE,130,5.0,7.0,98,0.00,,,-99.99,,2013-02-06 12:32:00,
2013-02-06 06:42:00,29.0,28.0,-100.00,ESE,115,6.0,10.0,98,0.00,,,-99.99,,2013-02-06 12:42:00,
2013-02-06 06:52:00,29.0,28.0,-100.00,ESE,115,7.0,10.0,98,0.00,,,-99.99,,2013-02-06 12:52:00,
2013-02-06 07:01:00,29.0,28.0,-100.00,ESE,115,7.0,10.0,98,0.00,,,-99.99,,2013-02-06 13:01:00,
2013-02-06 07:11:00,29.0,28.0,-100.00,ESE,110,9.0,11.0,98,0.00,,,-99.99,,2013-02-06 13:11:00,
2013-02-06 07:22:00,29.0,28.0,-100.00,ESE,115,7.0,11.0,98,0.00,,,-99.99,,2013-02-06 13:22:00,
2013-02-06 07:32:00,29.0,28.0,-100.00,SE,135,6.0,10.0,98,0.00,,,-99.99,,2013-02-06 13:32:00,
2013-02-06 07:42:00,29.0,28.0,-100.00,SE,140,4.0,9.0,98,0.00,,,-99.99,,2013-02-06 13:42:00,
2013-02-06 07:52:00,29.0,28.0,-100.00,ESE,120,4.0,7.0,98,0.00,,,-99.99,,2013-02-06 13:52:00,
2013-02-06 08:01:00,29.0,28.0,-100.00,ESE,120,4.0,7.0,98,0.00,,,-99.99,,2013-02-06 14:01:00,
2013-02-06 08:11:00,29.0,28.0,-100.00,SE,145,4.0,7.0,98,0.00,,,-99.99,,2013-02-06 14:11:00,
2013-02-06 08:21:00,29.0,28.0,-100.00,SSE,150,4.0,8.0,98,0.00,,,-99.99,,2013-02-06 14:21:00,
2013-02-06 08:32:00,29.0,28.0,-100.00,SE,145,5.0,9.0,98,0.00,,,-99.99,,2013-02-06 14:32:00,
2013-02-06 08:41:00,29.0,28.0,-100.00,SE,125,6.0,10.0,98,0.00,,,-99.99,,2013-02-06 14:41:00,
2013-02-06 08:52:00,30.0,29.0,-100.00,ESE,115,7.0,11.0,98,0.00,,,-99.99,,2013-02-06 14:52:00,
2013-02-06 09:01:00,30.0,29.0,-100.00,ESE,115,7.0,11.0,98,0.00,,,-99.99,,2013-02-06 15:01:00,
2013-02-06 09:11:00,31.0,30.0,-100.00,SE,140,7.0,12.0,97,0.00,,,-99.99,,2013-02-06 15:11:00,
2013-02-06 09:21:00,31.0,31.0,-100.00,SE,140,6.0,11.0,97,0.00,,,-99.99,,2013-02-06 15:21:00,
2013-02-06 09:31:00,32.0,31.0,-100.00,SE,135,7.0,12.0,97,0.00,,,-99.99,,2013-02-06 15:31:00,
2013-02-06 09:41:00,33.0,31.0,-100.00,SSE,160,6.0,13.0,96,0.00,,,-99.99,,2013-02-06 15:41:00,
2013-02-06 09:52:00,34.0,33.0,-100.00,SSE,150,6.0,12.0,94,0.00,,,-99.99,,2013-02-06 15:52:00,
2013-02-06 10:01:00,34.0,33.0,-100.00,SSE,150,6.0,12.0,94,0.00,,,-99.99,,2013-02-06 16:01:00,
2013-02-06 10:11:00,35.0,33.0,-100.00,SSE,150,7.0,13.0,91,0.00,,,-99.99,,2013-02-06 16:11:00,
2013-02-06 10:21:00,35.0,33.0,-100.00,SSE,160,6.0,11.0,90,0.00,,,-99.99,,2013-02-06 16:21:00,
2013-02-06 10:32:00,36.0,33.0,-100.00,SSE,160,5.0,13.0,89,0.00,,,-99.99,,2013-02-06 16:32:00,
2013-02-06 10:42:00,37.0,34.0,-100.00,SSE,155,6.0,14.0,86,0.00,,,-99.99,,2013-02-06 16:42:00,
2013-02-06 10:51:00,40.0,34.0,-100.00,SSE,165,6.0,11.0,81,0.00,,,-99.99,,2013-02-06 16:51:00,
2013-02-06 11:02:00,40.0,34.0,-100.00,SSE,165,6.0,11.0,81,0.00,,,-99.99,,2013-02-06 17:02:00,
2013-02-06 11:11:00,40.0,33.0,-100.00,SSE,165,11.0,17.0,77,0.00,,,-99.99,,2013-02-06 17:11:00,
2013-02-06 11:21:00,41.0,34.0,-100.00,SE,145,9.0,16.0,75,0.00,,,-99.99,,2013-02-06 17:21:00,
2013-02-06 11:32:00,41.0,33.0,-100.00,SE,145,10.0,18.0,72,0.00,,,-99.99,,2013-02-06 17:32:00,
2013-02-06 11:41:00,41.0,33.0,-100.00,SSE,160,9.0,19.0,72,0.00,,,-99.99,,2013-02-06 17:41:00,
2013-02-06 11:52:00,43.0,33.0,-100.00,SE,145,9.0,16.0,69,0.00,,,-99.99,,2013-02-06 17:52:00,
2013-02-06 12:01:00,43.0,33.0,-100.00,SE,145,9.0,16.0,69,0.00,,,-99.99,,2013-02-06 18:01:00,
2013-02-06 12:11:00,42.0,33.0,-100.00,SSE,160,9.0,14.0,68,0.00,,,-99.99,,2013-02-06 18:11:00,
2013-02-06 12:23:00,43.0,33.0,-100.00,SSE,165,7.0,12.0,67,0.00,,,-99.99,,2013-02-06 18:23:00,
2013-02-06 12:32:00,43.0,32.0,-100.00,SSE,165,8.0,14.0,66,0.00,,,-99.99,,2013-02-06 18:32:00,
2013-02-06 12:41:00,43.0,32.0,-100.00,SSE,155,9.0,12.0,65,0.00,,,-99.99,,2013-02-06 18:41:00,
2013-02-06 12:52:00,43.0,32.0,-100.00,SSE,165,7.0,14.0,65,0.00,,,-99.99,,2013-02-06 18:52:00,
2013-02-06 13:01:00,43.0,32.0,-100.00,SSE,165,7.0,14.0,65,0.00,,,-99.99,,2013-02-06 19:01:00,
2013-02-06 13:11:00,43.0,33.0,-100.00,SSE,150,5.0,12.0,65,0.00,,,-99.99,,2013-02-06 19:11:00,
2013-02-06 13:21:00,44.0,33.0,-100.00,SSE,155,6.0,12.0,65,0.00,,,-99.99,,2013-02-06 19:21:00,
2013-02-06 13:31:00,44.0,33.0,-100.00,SSE,160,9.0,14.0,63,0.00,,,-99.99,,2013-02-06 19:31:00,
2013-02-06 13:41:00,45.0,32.0,-100.00,SSE,155,9.0,15.0,59,0.00,,,-99.99,,2013-02-06 19:41:00,
2013-02-06 13:52:00,46.0,30.0,-100.00,South,170,9.0,14.0,52,0.00,,,-99.99,,2013-02-06 19:52:00,
2013-02-06 14:01:00,46.0,30.0,-100.00,South,170,9.0,14.0,52,0.00,,,-99.99,,2013-02-06 20:01:00,
2013-02-06 14:11:00,46.0,28.0,-100.00,SSE,155,10.0,16.0,49,0.00,,,-99.99,,2013-02-06 20:11:00,
2013-02-06 14:21:00,46.0,28.0,-100.00,South,170,7.0,16.0,49,0.00,,,-99.99,,2013-02-06 20:21:00,
2013-02-06 14:32:00,47.0,29.0,-100.00,SSE,150,6.0,14.0,50,0.00,,,-99.99,,2013-02-06 20:32:00,
2013-02-06 14:41:00,47.0,29.0,-100.00,SSE,150,6.0,14.0,50,0.00,,,-99.99,,2013-02-06 20:41:00,
2013-02-06 14:52:00,46.0,30.0,-100.00,SSE,150,7.0,14.0,52,0.00,,,-99.99,,2013-02-06 20:52:00,
2013-02-06 15:01:00,46.0,30.0,-100.00,SSE,150,7.0,14.0,52,0.00,,,-99.99,,2013-02-06 21:01:00,
2013-02-06 15:11:00,46.0,30.0,-100.00,SSE,150,7.0,12.0,53,0.00,,,-99.99,,2013-02-06 21:11:00,
2013-02-06 15:21:00,46.0,30.0,-100.00,SSE,150,5.0,13.0,53,0.00,,,-99.99,,2013-02-06 21:21:00,
2013-02-06 15:32:00,46.0,31.0,-100.00,SSE,155,6.0,12.0,55,0.00,,,-99.99,,2013-02-06 21:32:00,
2013-02-06 15:41:00,46.0,31.0,-100.00,SSE,155,6.0,12.0,55,0.00,,,-99.99,,2013-02-06 21:41:00,
2013-02-06 15:51:00,46.0,31.0,-100.00,SSE,160,6.0,12.0,55,0.00,,,-99.99,,2013-02-06 21:51:00,
2013-02-06 16:01:00,46.0,31.0,-100.00,SSE,160,6.0,12.0,55,0.00,,,-99.99,,2013-02-06 22:01:00,
2013-02-06 16:11:00,46.0,31.0,-100.00,SSE,165,8.0,13.0,56,0.00,,,-99.99,,2013-02-06 22:11:00,
2013-02-06 16:21:00,45.0,31.0,-100.00,SE,140,6.0,13.0,56,0.00,,,-99.99,,2013-02-06 22:21:00,
2013-02-06 16:31:00,44.0,31.0,-100.00,SSE,160,6.0,9.0,58,0.00,,,-99.99,,2013-02-06 22:31:00,
2013-02-06 16:41:00,44.0,31.0,-100.00,SSE,160,6.0,9.0,58,0.00,,,-99.99,,2013-02-06 22:41:00,
2013-02-06 16:51:00,44.0,31.0,-100.00,SE,145,6.0,9.0,59,0.00,,,-99.99,,2013-02-06 22:51:00,
2013-02-06 17:01:00,44.0,31.0,-100.00,SE,145,6.0,9.0,59,0.00,,,-99.99,,2013-02-06 23:01:00,
2013-02-06 17:11:00,44.0,31.0,-100.00,SE,145,7.0,10.0,60,0.00,,,-99.99,,2013-02-06 23:11:00,
2013-02-06 17:21:00,43.0,31.0,-100.00,SE,140,6.0,9.0,62,0.00,,,-99.99,,2013-02-06 23:21:00,
2013-02-06 17:32:00,43.0,32.0,-100.00,SSE,160,5.0,11.0,64,0.00,,,-99.99,,2013-02-06 23:32:00,
2013-02-06 17:41:00,43.0,32.0,-100.00,SSE,160,5.0,11.0,64,0.00,,,-99.99,,2013-02-06 23:41:00,
2013-02-06 17:52:00,43.0,32.0,-100.00,SE,140,4.0,9.0,65,0.00,,,-99.99,,2013-02-06 23:52:00,
2013-02-06 18:01:00,43.0,32.0,-100.00,SE,140,4.0,9.0,65,0.00,,,-99.99,,2013-02-07 00:01:00,
2013-02-06 18:11:00,42.0,32.0,-100.00,SE,140,4.0,6.0,66,0.00,,,-99.99,,2013-02-07 00:11:00,
2013-02-06 18:21:00,43.0,33.0,-100.00,SE,125,4.0,6.0,66,0.00,,,-99.99,,2013-02-07 00:21:00,
2013-02-06 18:31:00,42.0,33.0,-100.00,SE,130,4.0,6.0,68,0.00,,,-99.99,,2013-02-07 00:31:00,
2013-02-06 18:41:00,42.0,33.0,-100.00,SE,130,4.0,6.0,68,0.00,,,-99.99,,2013-02-07 00:41:00,
2013-02-06 18:51:00,41.0,32.0,-100.00,SE,135,4.0,6.0,69,0.00,,,-99.99,,2013-02-07 00:51:00,
2013-02-06 19:01:00,41.0,32.0,-100.00,SE,135,4.0,6.0,69,0.00,,,-99.99,,2013-02-07 01:01:00,
2013-02-06 19:11:00,41.0,32.0,-100.00,SE,135,3.0,6.0,70,0.00,,,-99.99,,2013-02-07 01:11:00,
2013-02-06 19:21:00,41.0,32.0,-100.00,SE,125,4.0,6.0,71,0.00,,,-99.99,,2013-02-07 01:21:00,
2013-02-06 19:31:00,40.0,32.0,-100.00,ESE,120,4.0,6.0,71,0.00,,,-99.99,,2013-02-07 01:31:00,
2013-02-06 19:41:00,40.0,32.0,-100.00,ESE,120,4.0,6.0,71,0.00,,,-99.99,,2013-02-07 01:41:00,
2013-02-06 19:52:00,40.0,32.0,-100.00,SE,130,6.0,7.0,72,0.00,,,-99.99,,2013-02-07 01:52:00,
2013-02-06 20:01:00,40.0,32.0,-100.00,SE,130,6.0,7.0,72,0.00,,,-99.99,,2013-02-07 02:01:00,
2013-02-06 20:11:00,40.0,32.0,-100.00,SE,140,4.0,6.0,72,0.00,,,-99.99,,2013-02-07 02:11:00,
2013-02-06 20:21:00,40.0,32.0,-100.00,SE,135,4.0,9.0,73,0.00,,,-99.99,,2013-02-07 02:21:00,
2013-02-06 20:31:00,39.0,32.0,-100.00,ESE,115,4.0,7.0,74,0.00,,,-99.99,,2013-02-07 02:31:00,
2013-02-06 20:41:00,39.0,32.0,-100.00,ESE,115,4.0,7.0,74,0.00,,,-99.99,,2013-02-07 02:41:00,
2013-02-06 20:51:00,39.0,32.0,-100.00,ESE,115,4.0,7.0,74,0.00,,,-99.99,,2013-02-07 02:51:00,
2013-02-06 21:02:00,39.0,32.0,-100.00,SE,125,4.0,6.0,75,0.00,,,-99.99,,2013-02-07 03:02:00,
2013-02-06 21:11:00,39.0,32.0,-100.00,SE,130,4.0,6.0,75,0.00,,,-99.99,,2013-02-07 03:11:00,
2013-02-06 21:21:00,39.0,32.0,-100.00,SE,145,4.0,6.0,75,0.00,,,-99.99,,2013-02-07 03:21:00,
2013-02-06 21:31:00,38.0,32.0,-100.00,SE,135,4.0,6.0,76,0.00,,,-99.99,,2013-02-07 03:31:00,
2013-02-06 21:41:00,38.0,32.0,-100.00,SE,135,4.0,6.0,76,0.00,,,-99.99,,2013-02-07 03:41:00,
2013-02-06 21:51:00,38.0,31.0,-100.00,SE,125,4.0,6.0,77,0.00,,,-99.99,,2013-02-07 03:51:00,
2013-02-06 22:01:00,38.0,31.0,-100.00,SE,125,4.0,6.0,77,0.00,,,-99.99,,2013-02-07 04:01:00,
2013-02-06 22:11:00,38.0,32.0,-100.00,SE,125,4.0,6.0,77,0.00,,,-99.99,,2013-02-07 04:11:00,
2013-02-06 22:22:00,38.0,32.0,-100.00,SE,125,4.0,6.0,78,0.00,,,-99.99,,2013-02-07 04:22:00,
2013-02-06 22:31:00,38.0,32.0,-100.00,SE,125,2.0,6.0,78,0.00,,,-99.99,,2013-02-07 04:31:00,
2013-02-06 22:41:00,38.0,32.0,-100.00,SE,125,2.0,6.0,78,0.00,,,-99.99,,2013-02-07 04:41:00,
2013-02-06 22:52:00,39.0,33.0,-100.00,ESE,115,3.0,6.0,78,0.00,,,-99.99,,2013-02-07 04:52:00,
2013-02-06 23:02:00,39.0,33.0,-100.00,ESE,115,3.0,6.0,78,0.00,,,-99.99,,2013-02-07 05:02:00,
2013-02-06 23:11:00,39.0,33.0,-100.00,SE,130,4.0,6.0,78,0.00,,,-99.99,,2013-02-07 05:11:00,
2013-02-06 23:21:00,39.0,33.0,-100.00,SE,145,4.0,6.0,78,0.00,,,-99.99,,2013-02-07 05:21:00,
2013-02-06 23:32:00,39.0,33.0,-100.00,ESE,120,3.0,6.0,78,0.00,,,-99.99,,2013-02-07 05:32:00,
2013-02-06 23:42:00,39.0,33.0,-100.00,SE,130,3.0,5.0,78,0.00,,,-99.99,,2013-02-07 05:42:00,
2013-02-06 23:52:00,39.0,33.0,-100.00,SE,140,2.0,4.0,79,0.00,,,-99.99,,2013-02-07 05:52:00,